Regional Weather Roundup
Issued by NWS

Home | Current Version | Previous Version | Graphics & Text | Print | Product List | Glossary On
Versions: 1 2 3 4 5 6 7 8 9 10 11 12 13 14 15 16 17 18 19 20 21 22 23 24 25 26 27 28 29 30 31 32 33 34 35 36 37 38 39 40 41 42 43 44 45 46 47 48 49 50
000
ASUS43 KDTX 041110
RWRMI
MICHIGAN HOURLY REGIONAL WEATHER ROUNDUP
NATIONAL WEATHER SERVICE DETROIT/PONTIAC MI
700 AM EDT SAT JUL 04 2015

NOTE: "FAIR" INDICATES FEW OR NO CLOUDS BELOW 12,000 FEET WITH NO
SIGNIFICANT WEATHER AND/OR OBSTRUCTION TO VISIBILITY.

MIZ047>049-052>055-059>063-066>070-074>076-081>083-041200-
SOUTHEAST LOWER MICHIGAN

CITY           SKY/WX    TMP DP  RH WIND       PRES   REMARKS
ADRIAN         CLEAR     55  52  89 CALM      29.97R
ALMA           PTCLDY    52  52  99 CALM      29.96R
ANN ARBOR      FOG       49  49 100 CALM      29.96R VSB 1/4
BAD AXE        PTCLDY    51  50  95 CALM      29.95S
CARO           PTCLDY    49  48  97 CALM      29.95R
DETROIT CITY   CLEAR     58  52  80 CALM      29.95R
DETROIT        PTCLDY    58  53  84 CALM      29.95R
FLINT          CLEAR     53  50  89 S3        29.96R
GROSSE ILE     CLEAR     59  55  88 NW3       29.94R
HILLSDALE      CLEAR     54  54 100 CALM      29.97R
HOWELL         CLEAR     51  50  96 CALM      29.97R

CITY           SKY/WX    TMP DP  RH WIND       PRES   REMARKS
JACKSON        CLEAR     53  52  96 W3        29.97R
LAMBERTVILLE   CLEAR     55  53  91 CALM      29.96R FOG
LANSING        CLEAR     54  51  90 CALM      29.97R FOG
LAPEER         FAIR      47  46  96 CALM      29.96R FOG
MASON          PTCLDY    51  50  98 CALM      29.97R FOG
MONROE         CLEAR     56  53  91 CALM      29.94R FOG
MT. CLEMENS    CLEAR     55  53  92 W2        29.92R
PONTIAC        CLEAR     53  51  93 CALM      29.95R FOG
PORT HOPE        N/A     59  53  80 SW6       29.93R
PORT HURON     CLEAR     52  52 100 CALM      29.95R FOG
TRI CITIES     CLOUDY    57  52  83 W3        29.96R
MIDLAND        FAIR      53  51  94 CALM      29.95R
TROY           CLEAR     59  54  83 CALM      29.96R
SAGINAW HB     PTCLDY    54  54 100 CALM      29.94S
$$
MIZ043>046-050>051-056>058-064>065-071>073-077>080-041200-
SOUTHWEST LOWER MICHIGAN

CITY           SKY/WX    TMP DP  RH WIND       PRES   REMARKS
BATTLE CREEK   CLEAR     56  53  90 CALM      29.97R
BENTON HARBOR  CLEAR     50  49  96 CALM      29.97R FOG
BIG RAPIDS     MOCLDY    52  49  89 CALM      29.96R
COLDWATER      CLEAR     53  53  99 CALM      29.97R FOG
FREMONT        FAIR      53  52  97 CALM      29.96R
HOLLAND        CLEAR     53  50  89 CALM      29.97S
GRAND RAPIDS   MOCLDY    57  51  80 CALM      29.97R HAZE
IONIA          FAIR      55  53  94 SW3       29.95S
KALAMAZOO      CLEAR     54  50  86 CALM      29.98R
LUDINGTON      CLEAR     62  52  70 SW6       29.95R
MARSHALL       CLEAR     53  51  95 CALM      29.97R FOG
MOUNT PLEASANT PTCLDY    53  51  95 CALM      29.95R
MUSKEGON       PTCLDY    54  49  83 CALM      29.96S
SOUTH HAVEN    CLEAR     51  49  95 CALM      29.97S FOG
$$
MIZ016>042-041200-
NORTHERN LOWER MICHIGAN

CITY           SKY/WX    TMP DP  RH WIND       PRES   REMARKS
ALPENA         CLOUDY    61  53  75 CALM      29.93R
BEAVER ISLAND  CLEAR     51  50  96 CALM      29.93R
BELLAIRE       CLEAR     53  51  91 CALM      29.94R
CADILLAC       CLEAR     53  49  87 CALM      29.96R
CHARLEVOIX     CLEAR     56  51  85 CALM      29.96R
FRANKFORT      CLEAR     58  50  72 CALM      29.93S
GAYLORD        CLEAR     57  49  74 CALM      29.95R
GRAYLING       MOCLDY    55  53  94 CALM      29.96R
HARBOR SPRINGS CLEAR     56  51  82 CALM      29.94R
HOUGHTON LAKE  CLOUDY    62  51  67 W5        29.96R
MANISTEE       CLEAR    N/A N/A N/A E5        29.94R
OSCODA         CLOUDY    58  50  74 CALM      29.93S
PELLSTON       CLEAR     55  51  86 CALM      29.93R
ROGERS CITY    PTCLDY    55  54  94 CALM      29.94R
TRAVERSE CITY  PTCLDY    62  49  62 S5        29.91R
$$
MIZ007>008-015-041200-
EASTERN UPPER MICHIGAN

CITY           SKY/WX    TMP DP  RH WIND       PRES   REMARKS
KINROSS        CLEAR     54  50  87 NW5       29.92R
MACKINAC ISLAN CLEAR     55  55  97 W5        29.92R
NEWBERRY       FOG       52  52  99 NW5       29.93R VSB 1/4
S. S. MARIE    PTCLDY    53  50  89 CALM      29.92R
MUNISING         N/A     54  53  97 CALM      29.94R
$$
MIZ004>006-011>014-085-041200-
CENTRAL UPPER MICHIGAN

CITY           SKY/WX    TMP DP  RH WIND       PRES   REMARKS
MANISTIQUE     CLEAR     53  52  97 NW3       29.93R FOG
ESCANABA       PTCLDY    57  55  94 N3        29.93R
MENOMINEE      CLEAR     57  54  88 CALM      29.93R
SAWYER-GWINN   CLOUDY    52  50  93 CALM      29.95R
$$
MIZ001>003-009>011-084-041200-
WESTERN UPPER MICHIGAN

CITY           SKY/WX    TMP DP  RH WIND       PRES   REMARKS
IRON MOUNTAIN  PTCLDY    56  54  93 CALM      29.94R FOG
HOUGHTON       CLEAR     53  50  89 NW3       29.95R
COPPER HARBOR    N/A     51  49  92 CALM      29.95R
IRONWOOD         N/A     50  50 100 CALM      29.94R VSB 1/4
$$

ABBREVIATIONS USED IN REMARKS
   TC - TEMPERATURE IN CELSIUS
  WCI - WIND CHILL INDEX
   HX - HEAT INDEX
  VSB - VISIBILITY



USA.gov is the U.S. government's official web portal to all federal, state and local government web resources and services.